Regional Weather Roundup
Issued by NWS

Home | Current Version | Previous Version | Text Only | Print | Product List | Glossary On
Versions: 1 2 3 4 5 6 7 8 9 10 11 12 13 14 15 16 17 18 19 20 21 22 23 24 25 26 27
000
ASUS44 KBMX 251510
RWRAL

ALABAMA REGIONAL WEATHER ROUNDUP
NATIONAL WEATHER SERVICE BIRMINGHAM AL
1000 AM CDT MON JUL 25 2016

NOTE: "FAIR" INDICATES FEW OR NO CLOUDS BELOW 12,000 FEET
WITH NO SIGNIFICANT WEATHER AND/OR OBSTRUCTIONS TO VISIBILITY.

THE REMARK "TC" DENOTES TEMPERATURE IN DEGREES CELSIUS.

ALZ001>011-014-016>018-020-251600-
NORTH ALABAMA

CITY           SKY/WX    TMP DP  RH WIND       PRES   REMARKS
MUSCLE SHOALS  SUNNY     87  74  64 SW8       30.06F HX  95
HUNTSVILLE     MOSUNNY   89  70  53 SW7       30.07F HX  94
DECATUR        SUNNY     87  74  64 SW5       30.07F HX  95
HALEYVILLE     FAIR      86  73  65 SW7       30.10F HX  93
GADSDEN        SUNNY     85  75  72 CALM      30.09F HX  93
$$

ALZ012-013-022-023-030>036-040>044-251600-
WEST CENTRAL ALABAMA

CITY           SKY/WX    TMP DP  RH WIND       PRES   REMARKS
TUSCALOOSA     MOSUNNY   86  76  71 NE6       30.05F HX  96
$$

ALZ015-024>027-033>036-040>044-251600-
CENTRAL ALABAMA

CITY           SKY/WX    TMP DP  RH WIND       PRES   REMARKS
BIRMINGHAM     MOSUNNY   86  73  65 VRB3      30.10F HX  93
MONTGOMERY     MOSUNNY   88  72  58 E3        30.07S HX  94
SHELBY CO ARPT SUNNY     87  72  60 S6        30.08F HX  93
MAXWELL AFB    SUNNY     88  74  64 VRB5      30.06S HX  96
GREENVILLE     FAIR      87  73  62 SE7       30.07S HX  94
$$

ALZ019-021-028-029-037-038-045>048-251600-
EAST CENTRAL ALABAMA

CITY           SKY/WX    TMP DP  RH WIND       PRES   REMARKS
ANNISTON       CLOUDY    86  71  60 SW5       30.09F HX  91
ALEXANDER CITY SUNNY     88  79  75 CALM      30.10S HX 102
AUBURN         SUNNY     87  72  60 W5        30.11F HX  93
$$

ALZ051>064-251600-
SOUTHWEST ALABAMA

CITY           SKY/WX    TMP DP  RH WIND       PRES   REMARKS
MOBILE         PTSUNNY   86  75  69 E10       30.02F HX  95
BROOKLEY FIELD MOSUNNY   87  77  72 E9        30.02F HX  99
EVERGREEN      MOSUNNY   86  75  69 SE7       30.05F HX  95
$$

ALZ049-050-065>069-251600-
SOUTHEAST ALABAMA

CITY           SKY/WX    TMP DP  RH WIND       PRES   REMARKS
DOTHAN         MOSUNNY   86  74  67 SE6       30.11S HX  94
OZARK          MOSUNNY   88  75  66 SE6       30.06F HX  97
TROY           MOSUNNY   86  76  71 S7        30.08S HX  96
EUFAULA        FAIR      89  73  59 E6        30.07S HX  97
$$




USA.gov is the U.S. government's official web portal to all federal, state and local government web resources and services.